map of WIPT home
Great Circle Mapper logo
WIPT - Airport
Location
City:  Padang, Sumatra Island, Indonesia
Name:Minangkabau
ICAO:WIPT

Details
Type:Airport (Aerodrome, Airfield)
Use:Public/Civil, International (customs port of entry)
Latitude:047'13"S (-0.786916)
Longitude:10016'51"E (100.280797)
Datum:WGS 1984
Elevation:18 ft (5 m)
Variation:0.2W (WMM2015 magnetic declination)
Runways:1
Longest:9020 × 148 ft (2749 × 45 m), paved

Time
Time Zone:UTC+7
Local Time:

Weather
METAR:WIPT 212330Z 17005KT 7000 BKN019 24/22 Q1008
TAF:WIPT 210500Z 2106/2206 30006KT 7000 BKN018
TEMPO 2112/2114 33007KT 4000 RA BKN016
BECMG 2120/2122 03003KT 8000 SCT020

Related Locations
Nearby:
Farthest:ESM: 12444 mi / 20027 km
Tachina [General Rivadeneira], Esmeraldas, EC

Find:

   beyond  
but within

Other Information
Maps:
NOTAMs:
Links:
Sources:

  
flag of Indonesia   

Sectional Chart

Flight Planning
at skyvector.com

Satellite Image

Google Maps Satellite View

 

Copyright © 2004-2014 Karl L. Swartz. All rights reserved.
The Great Circle Mapper name and logo are trademarks of the Great Circle Mapper.
All other trademarks mentioned herein belong to their respective owners.
Please see credits for attibutions and further copyright information.

  Follow gcmap on Facebook Follow gcmap on Twitter

hCard Microformat

Geo Microformat